Regional Weather Roundup
Issued by NWS Glasgow, MT

Home | Current Version | Previous Version | Text Only | Print | Product List | Glossary On
Versions: 1 2 3 4 5 6 7 8 9 10 11 12 13 14 15 16 17 18 19 20 21 22 23 24 25 26 27 28 29 30 31 32 33 34 35 36 37 38 39 40 41 42 43 44 45 46 47 48 49 50
000
ASUS45 KGGW 201115
RWRGGW
HOURLY REGIONAL WEATHER ROUNDUP FOR NORTHEAST MONTANA
NATIONAL WEATHER SERVICE GLASGOW MONTANA
400 AM MST FRI JAN 20 2017

NOTE: "FAIR" INDICATES FEW OR NO CLOUDS BELOW 12,000 FEET WITH NO
SIGNIFICANT WEATHER AND/OR OBSTRUCTIONS TO VISISBILITY.

NORTHEAST MONTANA


CITY           SKY/WX    TMP DP  RH WIND       PRES   REMARKS
GLASGOW        CLOUDY    27  23  85 NW7       29.43F
PLENTYWOOD       N/A     25  25 100 NW3         N/A
WOLF POINT     CLOUDY    18  15  88 SW3       29.44S FOG
JORDAN           N/A     35  33  92 W8        29.45S
WINNETT          N/A     36  34  92 W1          N/A
SIDNEY         CLOUDY    17  14  88 S6        29.42F
GLENDIVE       CLOUDY    14  13  95 SW6       29.43
MALTA            N/A     35  32  88 SW3         N/A
SCOBEY         HAZE      21  15  78 CALM      29.43S VSB 1/4

FORT PECK REPORTS


CITY           SKY/WX    TMP DP  RH WIND       PRES   REMARKS
FORT PECK        N/A     30  28  92 S5          N/A
THE PINES        N/A     32  28  85 CALM        N/A

SOUTHEAST MONTANA


CITY           SKY/WX    TMP DP  RH WIND       PRES   REMARKS
BILLINGS       LGT RAIN  33  30  88 SW14      29.48F
MILES CITY     CLOUDY    19  15  84 S6        29.46F
BAKER          CLOUDY    20  17  88 NW5       29.43F
LIVINGSTON     CLOUDY    33  29  85 NW6       29.49F

CENTRAL MONTANA


CITY           SKY/WX    TMP DP  RH WIND       PRES   REMARKS
HAVRE          CLOUDY    34  30  85 SW12      29.44F
LEWISTOWN      CLOUDY    34  30  85 S5        29.46F
GREAT FALLS    CLOUDY    34  25  69 SW14      29.45F
CUT BANK       MOCLDY    32  21  64 W16       29.41F
HELENA         CLOUDY    29  26  89 CALM      29.51F
BUTTE          CLOUDY    21  19  92 SW3       29.51S
BOZEMAN        CLOUDY    29  26  89 CALM      29.52F

WESTERN MONTANA


CITY           SKY/WX    TMP DP  RH WIND       PRES   REMARKS
MISSOULA       FOG       32  32 100 CALM      29.55F VSB 1/4
KALISPELL      NOT AVBL

NORTH DAKOTA


CITY           SKY/WX    TMP DP  RH WIND       PRES   REMARKS
WILLISTON      CLOUDY    14  12  92 CALM      29.40F FOG
DICKINSON      CLOUDY    19  16  88 NW6       29.36F
MINOT          CLOUDY    18  15  88 SE5       29.39R
BISMARCK       FOG       22  21  96 CALM      29.44F VSB 1/4

SOUTHERN SASKATCHEWAN


CITY           SKY/WX    TMP DP  RH WIND       PRES   REMARKS
REGINA         CLEAR     18  16  93 E7        29.37S
MOOSE JAW      PTCLDY    36  30  80 W13       29.36
ESTEVAN        PTCLDY    14  12  92 S5        29.38S
SWIFT CURRENT  CLOUDY    37  27  65 W18G25    29.33F




USA.gov is the U.S. government's official web portal to all federal, state and local government web resources and services.